START_TIME,STEP,MOV.,M15,t_acc.,M20,t_acc.
1979-07-24 21:00:43.350 ,0,0,0.,24.0,0.,24.0
1979-07-24 21:01:07.350 ,0,1,0.,24.0,0.,24.0
1979-07-24 21:01:31.350 ,0,0,0.,24.0,0.,24.0
1979-07-24 21:01:55.350 ,1,1,0.,24.0,0.,24.0
1979-07-24 21:02:19.350 ,1,0,0.,24.0,0.,24.0
1979-07-24 21:02:43.350 ,2,1,0.,24.0,0.,24.0
1979-07-24 21:03:07.350 ,2,0,0.,24.0,0.,24.0
1979-07-24 21:03:31.350 ,3,1,0.,24.0,0.,24.0
1979-07-24 21:03:55.350 ,3,0,0.,24.0,0.,24.0
1979-07-24 21:04:19.350 ,4,1,0.,24.0,0.,24.0
1979-07-24 21:04:43.350 ,4,0,0.,24.0,0.,24.0
1979-07-24 21:05:07.350 ,5,1,0.,24.0,0.,24.0
1979-07-24 21:05:31.350 ,5,0,0.,24.0,0.,24.0
1979-07-24 21:05:55.350 ,6,1,0.,24.0,0.,24.0
1979-07-24 21:06:19.350 ,6,0,0.,24.0,0.,24.0
1979-07-24 21:06:43.350 ,7,0,0.,24.0,0.,24.0
1979-07-24 21:07:07.350 ,7,0,0.,24.0,0.,24.0
1979-07-24 21:07:31.350 ,3,1,0.,24.0,0.,24.0
1979-07-24 21:07:55.350 ,0,1,0.,24.0,0.,24.0
1979-07-24 21:08:19.350 ,4,1,0.,24.0,0.,24.0
1979-07-24 21:08:43.350 ,7,1,0.,24.0,0.,24.0
1979-07-24 21:09:07.350 ,3,1,0.,24.0,0.,24.0
1979-07-24 21:09:31.350 ,0,1,0.,24.0,0.,24.0
1979-07-24 21:09:55.350 ,4,1,0.,24.0,0.,24.0
1979-07-24 21:10:19.350 ,7,1,0.,24.0,0.,24.0
1979-07-24 21:10:43.350 ,3,1,0.,24.0,0.,24.0
1979-07-24 21:11:07.350 ,0,1,0.,24.0,0.,24.0
1979-07-24 21:11:31.350 ,4,1,0.,24.0,0.,24.0
1979-07-24 21:11:55.350 ,7,1,0.,24.0,0.,24.0
1979-07-24 21:12:19.350 ,3,1,0.,24.0,0.,24.0
1979-07-24 21:12:43.350 ,0,1,0.,24.0,0.,24.0
1979-07-24 21:13:07.350 ,4,1,0.,24.0,0.,24.0
1979-07-24 21:13:31.350 ,7,1,0.,24.0,0.,24.0
1979-07-24 21:13:55.350 ,3,1,0.,24.0,0.,24.0
1979-07-24 21:14:19.350 ,0,1,0.,24.0,0.,24.0
1979-07-24 21:14:43.350 ,4,1,0.,24.0,0.,24.0
1979-07-24 21:15:07.350 ,7,1,0.,24.0,0.,24.0
1979-07-24 21:15:31.350 ,3,1,0.,24.0,0.,24.0
1979-07-24 21:15:55.350 ,0,1,0.,24.0,0.,24.0
1979-07-24 21:16:19.350 ,4,1,0.,24.0,0.,24.0
1979-07-24 21:16:43.350 ,7,1,0.,24.0,0.,24.0
1979-07-24 21:17:07.350 ,3,1,0.,24.0,0.,24.0
1979-07-24 21:17:31.350 ,0,1,0.,24.0,0.,24.0
1979-07-24 21:17:55.350 ,0,0,0.,24.0,0.,24.0
1979-07-24 21:18:19.350 ,0,0,0.,24.0,0.,24.0
1979-07-24 21:18:43.350 ,5,1,0.,24.0,0.,24.0
1979-07-24 21:19:07.350 ,5,0,0.,24.0,0.,24.0
1979-07-24 21:19:31.350 ,4,1,0.,24.0,0.,24.0
1979-07-24 21:19:55.350 ,4,0,0.,24.0,0.,24.0
1979-07-24 21:20:19.350 ,3,1,0.,24.0,0.,24.0
1979-07-24 21:20:43.350 ,3,0,0.,24.0,0.,24.0
1979-07-24 21:21:07.350 ,2,1,0.,24.0,0.,24.0
1979-07-24 21:21:31.350 ,2,0,0.,24.0,0.,24.0
1979-07-24 21:21:55.350 ,1,1,0.,24.0,0.,24.0
1979-07-24 21:22:19.350 ,1,0,0.,24.0,0.,24.0
1979-07-24 21:22:43.350 ,0,1,0.,24.0,0.,24.0
1979-07-24 21:23:07.350 ,0,0,0.,24.0,0.,24.0
1979-07-24 21:23:31.350 ,0,1,0.,24.0,0.,24.0
1979-07-24 21:23:55.350 ,0,0,0.,24.0,0.,24.0
1979-07-24 21:24:19.350 ,1,1,0.,24.0,0.,24.0
1979-07-24 21:24:43.350 ,1,0,0.,24.0,0.,24.0
1979-07-24 21:25:07.350 ,2,1,0.,24.0,0.,24.0
1979-07-24 21:25:31.350 ,2,0,0.,24.0,0.,24.0
1979-07-24 21:25:55.350 ,3,1,0.,24.0,0.,24.0
1979-07-24 21:26:19.350 ,3,0,0.,24.0,0.,24.0
1979-07-24 21:26:43.350 ,4,1,0.,24.0,0.,24.0
1979-07-24 21:27:07.350 ,4,0,0.,24.0,0.,24.0
1979-07-24 21:27:31.350 ,5,1,0.,24.0,0.,24.0
1979-07-24 21:27:55.350 ,5,0,0.,24.0,0.,24.0
1979-07-24 21:28:19.350 ,6,1,0.,24.0,0.,24.0
1979-07-24 21:28:43.350 ,6,0,0.,24.0,0.,24.0
1979-07-24 21:29:07.350 ,7,1,0.,24.0,0.,24.0
1979-07-24 21:29:31.350 ,7,0,0.,24.0,0.,24.0
1979-07-24 21:29:55.350 ,7,1,0.,24.0,0.,24.0
1979-07-24 21:30:19.350 ,7,0,0.,24.0,0.,24.0
1979-07-24 21:30:43.350 ,6,1,0.,24.0,0.,24.0
1979-07-24 21:31:07.350 ,6,0,0.,24.0,0.,24.0
1979-07-24 21:31:31.350 ,5,1,0.,24.0,0.,24.0
1979-07-24 21:31:55.350 ,5,0,0.,24.0,0.,24.0
1979-07-24 21:32:19.350 ,4,1,0.,24.0,0.,24.0
1979-07-24 21:32:43.350 ,4,0,0.,24.0,0.,24.0
1979-07-24 21:33:07.350 ,3,1,0.,24.0,0.,24.0
1979-07-24 21:33:31.350 ,3,0,0.,24.0,0.,24.0
1979-07-24 21:33:55.350 ,2,1,0.,24.0,0.,24.0
1979-07-24 21:34:19.350 ,2,0,0.,24.0,0.,24.0
1979-07-24 21:34:43.350 ,1,1,0.,24.0,0.,24.0
1979-07-24 21:35:07.350 ,1,0,0.,24.0,0.,24.0
1979-07-24 21:35:31.350 ,0,1,0.,24.0,0.,24.0
1979-07-24 21:35:55.350 ,0,0,0.,24.0,0.,24.0
1979-07-24 21:36:19.350 ,0,1,0.,24.0,0.,24.0
1979-07-24 21:36:43.350 ,0,0,0.,24.0,0.,24.0
1979-07-24 21:37:07.350 ,1,1,0.,24.0,0.,24.0
1979-07-24 21:37:31.350 ,1,0,0.,24.0,0.,24.0
1979-07-24 21:37:55.350 ,2,1,0.,24.0,0.,24.0
1979-07-24 21:38:19.350 ,2,0,0.,24.0,0.,24.0
1979-07-24 21:38:43.350 ,3,1,0.,24.0,0.,24.0
1979-07-24 21:39:07.350 ,3,0,0.,24.0,0.,24.0
1979-07-24 21:39:31.350 ,4,1,0.,24.0,0.,24.0
1979-07-24 21:39:55.350 ,4,0,0.,24.0,0.,24.0
1979-07-24 21:40:19.350 ,5,1,0.,24.0,0.,24.0
1979-07-24 21:40:43.350 ,5,0,0.,24.0,0.,24.0
1979-07-24 21:41:07.350 ,6,1,0.,24.0,0.,24.0
1979-07-24 21:41:31.350 ,6,0,0.,24.0,0.,24.0
1979-07-24 21:41:55.350 ,7,1,0.,24.0,0.,24.0
1979-07-24 21:42:19.350 ,7,0,0.,24.0,0.,24.0
1979-07-24 21:42:43.350 ,7,1,0.,24.0,0.,24.0
1979-07-24 21:43:07.350 ,7,0,0.,24.0,0.,24.0
1979-07-24 21:43:31.350 ,6,1,0.,24.0,0.,24.0
1979-07-24 21:43:55.350 ,6,0,0.,24.0,0.,24.0
1979-07-24 21:44:19.350 ,5,1,0.,24.0,0.,24.0
1979-07-24 21:44:43.350 ,5,0,0.,24.0,0.,24.0
1979-07-24 21:45:07.350 ,4,1,0.,24.0,0.,24.0
1979-07-24 21:45:31.350 ,4,0,0.,24.0,0.,24.0
1979-07-24 21:45:55.350 ,3,1,0.,24.0,0.,24.0
1979-07-24 21:46:19.350 ,3,0,0.,24.0,0.,24.0
1979-07-24 21:46:43.350 ,2,1,0.,24.0,0.,24.0
1979-07-24 21:47:07.350 ,2,0,0.,24.0,0.,24.0
1979-07-24 21:47:31.350 ,1,1,0.,24.0,0.,24.0
1979-07-24 21:47:55.350 ,1,0,0.,24.0,0.,24.0
1979-07-24 21:48:19.350 ,0,1,0.,24.0,0.,24.0
1979-07-24 21:48:43.350 ,0,0,0.,24.0,0.,24.0
1979-07-24 21:49:07.350 ,0,1,0.,24.0,0.,24.0
1979-07-24 21:49:31.350 ,0,0,0.,24.0,0.,24.0
1979-07-24 21:49:55.350 ,1,1,0.,24.0,0.,24.0
1979-07-24 21:50:19.350 ,1,0,0.,24.0,0.,24.0
1979-07-24 21:50:43.350 ,2,1,0.,24.0,0.,24.0
1979-07-24 21:51:07.350 ,2,0,0.,24.0,0.,24.0
1979-07-24 21:51:31.350 ,3,1,0.,24.0,0.,24.0
1979-07-24 21:51:55.350 ,3,0,0.,24.0,0.,24.0
1979-07-24 21:52:19.350 ,4,1,0.,24.0,0.,24.0
1979-07-24 21:52:43.350 ,4,0,0.,24.0,0.,24.0
1979-07-24 21:53:07.350 ,5,1,0.,24.0,0.,24.0
1979-07-24 21:53:31.350 ,5,0,0.,24.0,0.,24.0
1979-07-24 21:53:55.350 ,6,1,0.,24.0,0.,24.0
1979-07-24 21:54:19.350 ,6,0,0.,24.0,0.,24.0
1979-07-24 21:54:43.350 ,7,0,0.,24.0,0.,24.0
1979-07-24 21:55:07.350 ,7,0,0.,24.0,0.,24.0
1979-07-24 21:55:31.350 ,3,1,0.,24.0,0.,24.0
1979-07-24 21:55:55.350 ,0,1,0.,24.0,0.,24.0
1979-07-24 21:56:19.350 ,4,1,0.,24.0,0.,24.0
1979-07-24 21:56:43.350 ,7,1,0.,24.0,0.,24.0
1979-07-24 21:57:07.350 ,3,1,0.,24.0,0.,24.0
1979-07-24 21:57:31.350 ,0,1,0.,24.0,0.,24.0
1979-07-24 21:57:55.350 ,4,1,0.,24.0,0.,24.0
1979-07-24 21:58:19.350 ,7,1,0.,24.0,0.,24.0
1979-07-24 21:58:43.350 ,3,1,0.,24.0,0.,24.0
1979-07-24 21:59:07.350 ,0,1,0.,24.0,0.,24.0
1979-07-24 21:59:31.350 ,4,1,0.,24.0,0.,24.0
1979-07-24 21:59:55.350 ,7,1,0.,24.0,0.,24.0
1979-07-24 22:00:19.350 ,3,1,0.,24.0,0.,24.0
1979-07-24 22:00:43.350 ,0,1,0.,24.0,0.,24.0
1979-07-24 22:01:07.350 ,4,1,0.,24.0,0.,24.0
1979-07-24 22:01:31.350 ,7,1,0.,24.0,0.,24.0
1979-07-24 22:01:55.350 ,3,1,0.,24.0,0.,24.0
1979-07-24 22:02:19.350 ,0,1,0.,24.0,0.,24.0
1979-07-24 22:02:43.350 ,4,1,0.,24.0,0.,24.0
1979-07-24 22:03:07.350 ,7,1,0.,24.0,0.,24.0
1979-07-24 22:03:31.350 ,3,1,0.,24.0,0.,24.0
1979-07-24 22:03:55.350 ,0,1,0.,24.0,0.,24.0
1979-07-24 22:04:19.350 ,4,1,0.,24.0,0.,24.0
1979-07-24 22:04:43.350 ,7,1,0.,24.0,0.,24.0
1979-07-24 22:05:07.350 ,3,1,0.,24.0,0.,24.0
1979-07-24 22:05:31.350 ,0,1,0.,24.0,0.,24.0
1979-07-24 22:05:55.350 ,0,0,0.,24.0,0.,24.0
1979-07-24 22:06:19.350 ,0,0,0.,24.0,0.,24.0
1979-07-24 22:06:43.350 ,5,1,0.,24.0,0.,24.0
1979-07-24 22:07:07.350 ,5,0,0.,24.0,0.,24.0
1979-07-24 22:07:31.350 ,4,1,0.,24.0,0.,24.0
1979-07-24 22:07:55.350 ,4,0,0.,24.0,0.,24.0
1979-07-24 22:08:19.350 ,3,1,0.,24.0,0.,24.0
1979-07-24 22:08:43.350 ,3,0,0.,24.0,0.,24.0
1979-07-24 22:09:07.350 ,2,1,0.,24.0,0.,24.0
1979-07-24 22:09:31.350 ,2,0,0.,24.0,0.,24.0
1979-07-24 22:09:55.350 ,1,1,0.,24.0,0.,24.0
1979-07-24 22:10:19.350 ,1,0,0.,24.0,0.,24.0
1979-07-24 22:10:43.350 ,0,1,0.,24.0,0.,24.0
1979-07-24 22:11:07.350 ,0,0,0.,24.0,0.,24.0
1979-07-24 22:11:31.350 ,0,1,0.,24.0,0.,24.0
1979-07-24 22:11:55.350 ,0,0,0.,24.0,0.,24.0
1979-07-24 22:12:19.350 ,1,1,0.,24.0,0.,24.0
1979-07-24 22:12:43.350 ,1,0,0.,24.0,0.,24.0
1979-07-24 22:13:07.350 ,2,1,0.,24.0,0.,24.0
1979-07-24 22:13:31.350 ,2,0,0.,24.0,0.,24.0
1979-07-24 22:13:55.350 ,3,1,0.,24.0,0.,24.0
1979-07-24 22:14:19.350 ,3,0,0.,24.0,0.,24.0
1979-07-24 22:14:43.350 ,4,1,0.,24.0,0.,24.0
1979-07-24 22:15:07.350 ,4,0,0.,24.0,0.,24.0
1979-07-24 22:15:31.350 ,5,1,0.,24.0,0.,24.0
1979-07-24 22:15:55.350 ,5,0,0.,24.0,0.,24.0
1979-07-24 22:16:19.350 ,6,1,0.,24.0,0.,24.0
1979-07-24 22:16:43.350 ,6,0,0.,24.0,0.,24.0
1979-07-24 22:17:07.350 ,7,1,0.,24.0,0.,24.0
1979-07-24 22:17:31.350 ,7,0,0.,24.0,0.,24.0
1979-07-24 22:17:55.350 ,7,1,0.,24.0,0.,24.0
1979-07-24 22:18:19.350 ,7,0,0.,24.0,0.,24.0
1979-07-24 22:18:43.350 ,6,1,0.,24.0,0.,24.0
1979-07-24 22:19:07.350 ,6,0,0.,24.0,0.,24.0
1979-07-24 22:19:31.350 ,5,1,0.,24.0,0.,24.0
1979-07-24 22:19:55.350 ,5,0,0.,24.0,0.,24.0
1979-07-24 22:20:19.350 ,4,1,0.,24.0,0.,24.0
1979-07-24 22:20:43.350 ,4,0,0.,24.0,0.,24.0
1979-07-24 22:21:07.350 ,3,1,0.,24.0,0.,24.0
1979-07-24 22:21:31.350 ,3,0,0.,24.0,0.,24.0
1979-07-24 22:21:55.350 ,2,1,0.,24.0,0.,24.0
1979-07-24 22:22:19.350 ,2,0,0.,24.0,0.,24.0
1979-07-24 22:22:43.350 ,1,1,0.,24.0,0.,24.0
1979-07-24 22:23:07.350 ,1,0,0.,24.0,0.,24.0
1979-07-24 22:23:31.350 ,0,1,0.,24.0,0.,24.0
1979-07-24 22:23:55.350 ,0,0,0.,24.0,0.,24.0
1979-07-24 22:24:19.350 ,0,1,0.,24.0,0.,24.0
1979-07-24 22:24:43.350 ,0,0,0.,24.0,0.,24.0
1979-07-24 22:25:07.350 ,1,1,0.,24.0,0.,24.0
1979-07-24 22:25:31.350 ,1,0,0.,24.0,0.,24.0
1979-07-24 22:25:55.350 ,2,1,0.,24.0,0.,24.0
1979-07-24 22:26:19.350 ,2,0,0.,24.0,0.,24.0
1979-07-24 22:26:43.350 ,3,1,0.,24.0,0.,24.0
1979-07-24 22:27:07.350 ,3,0,0.,24.0,0.,24.0
1979-07-24 22:27:31.350 ,4,1,0.,24.0,0.,24.0
1979-07-24 22:27:55.350 ,4,0,0.,24.0,0.,24.0
1979-07-24 22:28:19.350 ,5,1,0.,24.0,0.,24.0
1979-07-24 22:28:43.350 ,5,0,0.,24.0,0.,24.0
1979-07-24 22:29:07.350 ,6,1,0.,24.0,0.,24.0
1979-07-24 22:29:31.350 ,6,0,0.,24.0,0.,24.0
1979-07-24 22:29:55.350 ,7,1,0.,24.0,0.,24.0
1979-07-24 22:30:19.350 ,7,0,0.,24.0,0.,24.0
1979-07-24 22:30:43.350 ,7,1,0.,24.0,0.,24.0
1979-07-24 22:31:07.350 ,7,0,0.,24.0,0.,24.0
1979-07-24 22:31:31.350 ,6,1,0.,24.0,0.,24.0
1979-07-24 22:31:55.350 ,6,0,0.,24.0,0.,24.0
1979-07-24 22:32:19.350 ,5,1,0.,24.0,0.,24.0
1979-07-24 22:32:43.350 ,5,0,0.,24.0,0.,24.0
1979-07-24 22:33:07.350 ,4,1,0.,24.0,0.,24.0
1979-07-24 22:33:31.350 ,4,0,0.,24.0,0.,24.0
1979-07-24 22:33:55.350 ,3,1,0.,24.0,0.,24.0
1979-07-24 22:34:19.350 ,3,0,0.,24.0,0.,24.0
1979-07-24 22:34:43.350 ,2,1,0.,24.0,0.,24.0
1979-07-24 22:35:07.350 ,2,0,0.,24.0,0.,24.0
1979-07-24 22:35:31.350 ,1,1,0.,24.0,0.,24.0
1979-07-24 22:35:55.350 ,1,0,0.,24.0,0.,24.0
1979-07-24 22:36:19.350 ,0,1,0.,24.0,0.,24.0
1979-07-24 22:36:43.350 ,0,0,0.,24.0,0.,24.0
1979-07-24 22:37:07.350 ,0,1,0.,24.0,0.,24.0
1979-07-24 22:37:31.350 ,0,0,0.,24.0,0.,24.0
1979-07-24 22:37:55.350 ,1,1,0.,24.0,1.,24.0
1979-07-24 22:38:19.350 ,1,0,0.,24.0,0.,24.0
1979-07-24 22:38:43.350 ,2,1,0.,24.0,0.,24.0
1979-07-24 22:39:07.350 ,2,0,0.,24.0,0.,24.0
1979-07-24 22:39:31.350 ,3,1,0.,24.0,0.,24.0
1979-07-24 22:39:55.350 ,3,0,0.,24.0,0.,24.0
1979-07-24 22:40:19.350 ,4,1,0.,24.0,0.,24.0
1979-07-24 22:40:43.350 ,4,0,0.,24.0,0.,24.0
1979-07-24 22:41:07.350 ,5,1,0.,24.0,0.,24.0
1979-07-24 22:41:31.350 ,5,0,0.,24.0,0.,24.0
1979-07-24 22:41:55.350 ,6,1,0.,24.0,0.,24.0
1979-07-24 22:42:19.350 ,6,0,0.,24.0,0.,24.0
1979-07-24 22:42:43.350 ,7,0,0.,24.0,0.,24.0
1979-07-24 22:43:07.350 ,7,0,0.,24.0,0.,24.0
1979-07-24 22:43:31.350 ,3,1,0.,24.0,0.,24.0
1979-07-24 22:43:55.350 ,0,1,0.,24.0,0.,24.0
1979-07-24 22:44:19.350 ,4,1,0.,24.0,0.,24.0
1979-07-24 22:44:43.350 ,7,1,0.,24.0,0.,24.0
1979-07-24 22:45:07.350 ,3,1,0.,24.0,0.,24.0
1979-07-24 22:45:31.350 ,0,1,0.,24.0,0.,24.0
1979-07-24 22:45:55.350 ,4,1,0.,24.0,0.,24.0
1979-07-24 22:46:19.350 ,7,1,0.,24.0,0.,24.0
1979-07-24 22:46:43.350 ,3,1,0.,24.0,0.,24.0
1979-07-24 22:47:07.350 ,0,1,0.,24.0,0.,24.0
1979-07-24 22:47:31.350 ,4,1,0.,24.0,0.,24.0
1979-07-24 22:47:55.350 ,7,1,0.,24.0,0.,24.0
1979-07-24 22:48:19.350 ,3,1,0.,24.0,0.,24.0
1979-07-24 22:48:43.350 ,0,1,0.,24.0,0.,24.0
1979-07-24 22:49:07.350 ,4,1,0.,24.0,0.,24.0
1979-07-24 22:49:31.350 ,7,1,0.,24.0,0.,24.0
1979-07-24 22:49:55.350 ,3,1,0.,24.0,0.,24.0
1979-07-24 22:50:19.350 ,0,1,0.,24.0,0.,24.0
1979-07-24 22:50:43.350 ,4,1,0.,24.0,0.,24.0
1979-07-24 22:51:07.350 ,7,1,0.,24.0,0.,24.0
1979-07-24 22:51:31.350 ,3,1,0.,24.0,0.,24.0
1979-07-24 22:51:55.350 ,0,1,0.,24.0,0.,24.0
1979-07-24 22:52:19.350 ,4,1,0.,24.0,0.,24.0
1979-07-24 22:52:43.350 ,7,1,0.,24.0,0.,24.0
1979-07-24 22:53:07.350 ,3,1,0.,24.0,0.,24.0
1979-07-24 22:53:31.350 ,0,1,0.,24.0,0.,24.0
1979-07-24 22:53:55.350 ,0,0,0.,24.0,0.,24.0
1979-07-24 22:54:19.350 ,0,0,0.,24.0,0.,24.0
1979-07-24 22:54:43.350 ,5,1,0.,24.0,0.,24.0
1979-07-24 22:55:07.350 ,5,0,0.,24.0,0.,24.0
1979-07-24 22:55:31.350 ,4,1,0.,24.0,0.,24.0
1979-07-24 22:55:55.350 ,4,0,0.,24.0,0.,24.0
1979-07-24 22:56:19.350 ,3,1,0.,24.0,0.,24.0
1979-07-24 22:56:43.350 ,3,0,0.,24.0,0.,24.0
1979-07-24 22:57:07.350 ,2,1,0.,24.0,0.,24.0
1979-07-24 22:57:31.350 ,2,0,0.,24.0,0.,24.0
1979-07-24 22:57:55.350 ,1,1,0.,24.0,0.,24.0
1979-07-24 22:58:19.350 ,1,0,0.,24.0,0.,24.0
1979-07-24 22:58:43.350 ,0,1,0.,24.0,0.,24.0
1979-07-24 22:59:07.350 ,0,0,,0,,0
1979-07-24 22:59:31.350 ,0,1,0.,24.0,0.,24.0
1979-07-24 22:59:55.350 ,0,0,0.,24.0,0.,24.0
1979-07-24 23:00:19.350 ,1,1,0.,24.0,0.,24.0
1979-07-24 23:00:43.350 ,1,0,0.,24.0,0.,24.0
1979-07-24 23:01:07.350 ,2,1,0.,24.0,0.,24.0
1979-07-24 23:01:31.350 ,2,0,0.,24.0,0.,24.0
1979-07-24 23:01:55.350 ,3,1,0.,24.0,0.,24.0
1979-07-24 23:02:19.350 ,3,0,0.,24.0,0.,24.0
1979-07-24 23:02:43.350 ,4,1,0.,24.0,0.,24.0
1979-07-24 23:03:07.350 ,4,0,0.,24.0,0.,24.0
1979-07-24 23:03:31.350 ,5,1,1.,24.0,0.,24.0
1979-07-24 23:03:55.350 ,5,0,0.,24.0,0.,24.0
1979-07-24 23:04:19.350 ,6,1,0.,24.0,0.,24.0
1979-07-24 23:04:43.350 ,6,0,0.,24.0,0.,24.0
1979-07-24 23:05:07.350 ,7,1,0.,24.0,0.,24.0
1979-07-24 23:05:31.350 ,7,0,0.,24.0,0.,24.0
1979-07-24 23:05:55.350 ,7,1,0.,24.0,0.,24.0
1979-07-24 23:06:19.350 ,7,0,0.,24.0,0.,24.0
1979-07-24 23:06:43.350 ,6,1,0.,24.0,0.,24.0
1979-07-24 23:07:07.350 ,6,0,0.,24.0,0.,24.0
1979-07-24 23:07:31.350 ,0,0,0.,24.0,0.,24.0
1979-07-24 23:07:55.350 ,0,0,0.,24.0,0.,24.0
1979-07-24 23:08:19.350 ,4,1,0.,24.0,0.,24.0
1979-07-24 23:08:43.350 ,4,0,0.,24.0,0.,24.0
1979-07-24 23:09:07.350 ,3,1,0.,24.0,0.,24.0
1979-07-24 23:09:31.350 ,3,0,0.,24.0,0.,24.0
1979-07-24 23:09:55.350 ,2,1,0.,24.0,0.,24.0
1979-07-24 23:10:19.350 ,2,0,0.,24.0,0.,24.0
1979-07-24 23:10:43.350 ,1,1,0.,24.0,0.,24.0
1979-07-24 23:11:07.350 ,1,0,0.,24.0,0.,24.0
1979-07-24 23:11:31.350 ,0,1,0.,24.0,0.,24.0
1979-07-24 23:11:55.350 ,0,0,0.,24.0,0.,24.0
1979-07-24 23:12:19.350 ,0,1,0.,24.0,0.,24.0
1979-07-24 23:12:43.350 ,0,0,0.,24.0,0.,24.0
1979-07-24 23:13:07.350 ,1,1,0.,24.0,0.,24.0
1979-07-24 23:13:31.350 ,1,0,0.,24.0,0.,24.0
1979-07-24 23:13:55.350 ,2,1,0.,24.0,0.,24.0
1979-07-24 23:14:19.350 ,2,0,0.,24.0,0.,24.0
1979-07-24 23:14:43.350 ,3,1,0.,24.0,0.,24.0
1979-07-24 23:15:07.350 ,3,0,0.,24.0,0.,24.0
1979-07-24 23:15:31.350 ,4,1,0.,24.0,0.,24.0
1979-07-24 23:15:55.350 ,4,0,0.,24.0,0.,24.0
1979-07-24 23:16:19.350 ,5,1,0.,24.0,0.,24.0
1979-07-24 23:16:43.350 ,5,0,0.,24.0,0.,24.0
1979-07-24 23:17:07.350 ,6,1,0.,24.0,0.,24.0
1979-07-24 23:17:31.350 ,6,0,0.,24.0,0.,24.0
1979-07-24 23:17:55.350 ,7,1,0.,24.0,0.,24.0
1979-07-24 23:18:19.350 ,7,0,0.,24.0,0.,24.0
1979-07-24 23:18:43.350 ,7,1,0.,24.0,0.,24.0
1979-07-24 23:19:07.350 ,7,0,0.,24.0,0.,24.0
1979-07-24 23:19:31.350 ,6,1,0.,24.0,0.,24.0
1979-07-24 23:19:55.350 ,6,0,0.,24.0,0.,24.0
1979-07-24 23:20:19.350 ,5,1,0.,24.0,0.,24.0
1979-07-24 23:20:43.350 ,5,0,0.,24.0,0.,24.0
1979-07-24 23:21:07.340 ,4,1,0.,24.0,0.,24.0
1979-07-24 23:21:31.340 ,4,0,0.,24.0,0.,24.0
1979-07-24 23:21:55.340 ,3,1,0.,24.0,0.,24.0
1979-07-24 23:22:19.340 ,3,0,0.,24.0,0.,24.0
1979-07-24 23:22:43.340 ,2,1,0.,24.0,0.,24.0
1979-07-24 23:23:07.340 ,2,0,0.,24.0,0.,24.0
1979-07-24 23:23:31.340 ,1,1,0.,24.0,0.,24.0
1979-07-24 23:23:55.340 ,1,0,0.,24.0,0.,24.0
1979-07-24 23:24:19.340 ,0,1,0.,24.0,0.,24.0
1979-07-24 23:24:43.340 ,0,0,0.,24.0,0.,24.0
1979-07-24 23:25:07.340 ,0,1,0.,24.0,0.,24.0
1979-07-24 23:25:31.340 ,0,0,0.,24.0,0.,24.0
1979-07-24 23:25:55.340 ,1,1,0.,24.0,0.,24.0
1979-07-24 23:26:19.340 ,1,0,0.,24.0,0.,24.0
1979-07-24 23:26:43.340 ,2,1,0.,24.0,0.,24.0
1979-07-24 23:27:07.340 ,2,0,0.,24.0,0.,24.0
1979-07-24 23:27:31.340 ,3,1,0.,24.0,0.,24.0
1979-07-24 23:27:55.340 ,3,0,0.,24.0,0.,24.0
1979-07-24 23:28:19.340 ,4,1,0.,24.0,0.,24.0
1979-07-24 23:28:43.340 ,4,0,0.,24.0,0.,24.0
1979-07-24 23:29:07.340 ,5,1,0.,24.0,0.,24.0
1979-07-24 23:29:31.340 ,5,0,1.,24.0,0.,24.0
1979-07-24 23:29:55.340 ,6,1,0.,24.0,0.,24.0
1979-07-24 23:30:19.340 ,6,0,0.,24.0,0.,24.0
1979-07-24 23:30:43.340 ,7,0,0.,24.0,0.,24.0
1979-07-24 23:31:07.340 ,7,0,0.,24.0,0.,24.0
1979-07-24 23:31:31.340 ,3,1,0.,24.0,0.,24.0
1979-07-24 23:31:55.340 ,0,1,0.,24.0,0.,24.0
1979-07-24 23:32:19.340 ,4,1,0.,24.0,0.,24.0
1979-07-24 23:32:43.340 ,7,1,0.,24.0,0.,24.0
1979-07-24 23:33:07.340 ,3,1,0.,24.0,0.,24.0
1979-07-24 23:33:31.340 ,0,1,0.,24.0,0.,24.0
1979-07-24 23:33:55.340 ,4,1,0.,24.0,0.,24.0
1979-07-24 23:34:19.340 ,7,1,0.,24.0,0.,24.0
1979-07-24 23:34:43.340 ,3,1,0.,24.0,0.,24.0
1979-07-24 23:35:07.340 ,0,1,1.,24.0,0.,24.0
1979-07-24 23:35:31.340 ,4,1,0.,24.0,0.,24.0
1979-07-24 23:35:55.340 ,7,1,0.,24.0,0.,24.0
1979-07-24 23:36:19.340 ,3,1,0.,24.0,0.,24.0
1979-07-24 23:36:43.340 ,0,1,0.,24.0,0.,24.0
1979-07-24 23:37:07.340 ,4,1,0.,24.0,0.,24.0
1979-07-24 23:37:31.340 ,7,1,0.,24.0,0.,24.0
1979-07-24 23:37:55.340 ,3,1,0.,24.0,0.,24.0
1979-07-24 23:38:19.340 ,0,1,0.,24.0,0.,24.0
1979-07-24 23:38:43.340 ,4,1,0.,24.0,0.,24.0
1979-07-24 23:39:07.340 ,7,1,0.,24.0,0.,24.0
1979-07-24 23:39:31.340 ,3,1,0.,24.0,0.,24.0
1979-07-24 23:39:55.340 ,0,1,0.,24.0,0.,24.0
1979-07-24 23:40:19.340 ,4,1,0.,24.0,0.,24.0
1979-07-24 23:40:43.340 ,7,1,0.,24.0,0.,24.0
1979-07-24 23:41:07.340 ,3,1,0.,24.0,0.,24.0
1979-07-24 23:41:31.340 ,0,1,0.,24.0,0.,24.0
1979-07-24 23:41:55.340 ,0,0,0.,24.0,0.,24.0
1979-07-24 23:42:19.340 ,0,0,0.,24.0,0.,24.0
1979-07-24 23:42:43.340 ,5,1,0.,24.0,0.,24.0
1979-07-24 23:43:07.340 ,5,0,0.,24.0,0.,24.0
1979-07-24 23:43:31.340 ,4,1,0.,24.0,0.,24.0
1979-07-24 23:43:55.340 ,4,0,0.,24.0,0.,24.0
1979-07-24 23:44:19.340 ,3,1,0.,24.0,0.,24.0
1979-07-24 23:44:43.340 ,3,0,0.,24.0,0.,24.0
1979-07-24 23:45:07.340 ,2,1,0.,24.0,0.,24.0
1979-07-24 23:45:31.340 ,2,0,0.,24.0,0.,24.0
1979-07-24 23:45:55.340 ,1,1,0.,24.0,0.,24.0
1979-07-24 23:46:19.340 ,1,0,0.,24.0,0.,24.0
1979-07-24 23:46:43.340 ,0,1,0.,24.0,0.,24.0
1979-07-24 23:47:07.340 ,0,0,0.,24.0,0.,24.0
1979-07-24 23:47:31.340 ,0,1,0.,24.0,0.,24.0
1979-07-24 23:47:55.340 ,0,0,0.,24.0,0.,24.0
1979-07-24 23:48:19.340 ,1,1,0.,24.0,0.,24.0
1979-07-24 23:48:43.340 ,1,0,0.,24.0,0.,24.0
1979-07-24 23:49:07.340 ,2,1,0.,24.0,0.,24.0
1979-07-24 23:49:31.340 ,2,0,0.,24.0,0.,24.0
1979-07-24 23:49:55.340 ,3,1,0.,24.0,0.,24.0
1979-07-24 23:50:19.340 ,3,0,0.,24.0,0.,24.0
1979-07-24 23:50:43.340 ,4,1,0.,24.0,0.,24.0
1979-07-24 23:51:07.340 ,4,0,0.,24.0,0.,24.0
1979-07-24 23:51:31.340 ,5,1,0.,24.0,0.,24.0
1979-07-24 23:51:55.340 ,5,0,0.,24.0,0.,24.0
1979-07-24 23:52:19.340 ,6,1,0.,24.0,0.,24.0
1979-07-24 23:52:43.340 ,6,0,0.,24.0,0.,24.0
1979-07-24 23:53:07.340 ,7,1,0.,24.0,0.,24.0
1979-07-24 23:53:31.340 ,7,0,0.,24.0,0.,24.0
1979-07-24 23:53:55.340 ,7,1,0.,24.0,0.,24.0
1979-07-24 23:54:19.340 ,7,0,0.,24.0,0.,24.0
1979-07-24 23:54:43.340 ,6,1,0.,24.0,0.,24.0
1979-07-24 23:55:07.340 ,6,0,0.,24.0,0.,24.0
1979-07-24 23:55:31.340 ,5,1,0.,24.0,0.,24.0
1979-07-24 23:55:55.340 ,5,0,0.,24.0,0.,24.0
1979-07-24 23:56:19.340 ,4,1,0.,24.0,0.,24.0
1979-07-24 23:56:43.340 ,4,0,0.,24.0,0.,24.0
1979-07-24 23:57:07.340 ,3,1,0.,24.0,0.,24.0
1979-07-24 23:57:31.340 ,3,0,0.,24.0,0.,24.0
1979-07-24 23:57:55.340 ,2,1,0.,24.0,0.,24.0
1979-07-24 23:58:19.340 ,2,0,0.,24.0,0.,24.0
1979-07-24 23:58:43.340 ,1,1,0.,24.0,0.,24.0
1979-07-24 23:59:07.340 ,1,0,0.,24.0,0.,24.0
1979-07-24 23:59:31.340 ,0,1,0.,24.0,0.,24.0
1979-07-24 23:59:55.340 ,0,0,0.,24.0,0.,24.0
1979-07-25 00:00:19.340 ,0,1,0.,24.0,0.,24.0
1979-07-25 00:00:43.340 ,0,0,0.,24.0,0.,24.0
1979-07-25 00:01:07.340 ,1,1,0.,24.0,0.,24.0
1979-07-25 00:01:31.340 ,1,0,0.,24.0,0.,24.0
1979-07-25 00:01:55.340 ,2,1,0.,24.0,0.,24.0
1979-07-25 00:02:19.340 ,2,0,0.,24.0,0.,24.0
1979-07-25 00:02:43.340 ,3,1,0.,24.0,0.,24.0
1979-07-25 00:03:07.340 ,3,0,0.,24.0,0.,24.0
1979-07-25 00:03:31.340 ,4,1,0.,24.0,0.,24.0
1979-07-25 00:03:55.340 ,4,0,0.,24.0,0.,24.0
1979-07-25 00:04:19.340 ,5,1,0.,24.0,0.,24.0
1979-07-25 00:04:43.340 ,5,0,0.,24.0,0.,24.0
1979-07-25 00:05:07.340 ,6,1,0.,24.0,0.,24.0
1979-07-25 00:05:31.340 ,6,0,0.,24.0,0.,24.0
1979-07-25 00:05:55.340 ,7,1,0.,24.0,0.,24.0
1979-07-25 00:06:19.340 ,7,0,0.,24.0,0.,24.0
1979-07-25 00:06:43.340 ,7,1,0.,24.0,0.,24.0
1979-07-25 00:07:07.340 ,7,0,0.,24.0,0.,24.0
1979-07-25 00:07:31.340 ,6,1,0.,24.0,0.,24.0
1979-07-25 00:07:55.340 ,6,0,0.,24.0,0.,24.0
1979-07-25 00:08:19.340 ,5,1,0.,24.0,0.,24.0
1979-07-25 00:08:43.340 ,5,0,0.,24.0,0.,24.0
1979-07-25 00:09:07.340 ,4,1,0.,24.0,0.,24.0
1979-07-25 00:09:31.340 ,4,0,0.,24.0,0.,24.0
1979-07-25 00:09:55.340 ,3,1,0.,24.0,0.,24.0
1979-07-25 00:10:19.340 ,3,0,0.,24.0,0.,24.0
1979-07-25 00:10:43.340 ,2,1,0.,24.0,0.,24.0
1979-07-25 00:11:07.340 ,2,0,0.,24.0,0.,24.0
1979-07-25 00:11:31.340 ,1,1,0.,24.0,0.,24.0
1979-07-25 00:11:55.340 ,1,0,0.,24.0,0.,24.0
1979-07-25 00:12:19.340 ,0,1,0.,24.0,0.,24.0
1979-07-25 00:12:43.340 ,0,0,0.,24.0,0.,24.0
1979-07-25 00:13:07.340 ,0,1,0.,24.0,0.,24.0
1979-07-25 00:13:31.340 ,0,0,0.,24.0,0.,24.0
1979-07-25 00:13:55.340 ,1,1,0.,24.0,0.,24.0
1979-07-25 00:14:19.340 ,1,0,1.,24.0,0.,24.0
1979-07-25 00:14:43.340 ,2,1,0.,24.0,0.,24.0
1979-07-25 00:15:07.340 ,2,0,0.,24.0,0.,24.0
1979-07-25 00:15:31.340 ,0,0,,0,,0
1979-07-25 00:15:55.340 ,0,0,,0,,0
1979-07-25 00:17:00.140 ,0,0,0.,24.0,0.,24.0
1979-07-25 00:17:07.340 ,5,1,0.,24.0,0.,24.0
1979-07-25 00:17:31.340 ,5,0,0.,24.0,0.,24.0
1979-07-25 00:17:55.340 ,6,1,0.,24.0,0.,24.0
1979-07-25 00:18:19.340 ,6,0,0.,24.0,0.,24.0
1979-07-25 00:18:43.340 ,7,0,0.,24.0,0.,24.0
1979-07-25 00:19:07.340 ,7,0,0.,24.0,0.,24.0
1979-07-25 00:19:31.340 ,3,1,0.,24.0,0.,24.0
1979-07-25 00:19:55.340 ,0,1,0.,24.0,0.,24.0
1979-07-25 00:20:19.340 ,4,1,0.,24.0,0.,24.0
1979-07-25 00:20:43.340 ,7,1,0.,24.0,0.,24.0
1979-07-25 00:21:07.340 ,3,1,0.,24.0,0.,24.0
1979-07-25 00:21:31.340 ,0,1,0.,24.0,0.,24.0
1979-07-25 00:21:55.340 ,4,1,0.,24.0,0.,24.0
1979-07-25 00:22:19.340 ,7,1,0.,24.0,0.,24.0
1979-07-25 00:22:43.340 ,3,1,0.,24.0,0.,24.0
1979-07-25 00:23:07.340 ,0,1,0.,24.0,0.,24.0
1979-07-25 00:23:31.340 ,4,1,0.,24.0,0.,24.0
1979-07-25 00:23:55.340 ,7,1,0.,24.0,0.,24.0
1979-07-25 00:24:19.340 ,3,1,0.,24.0,0.,24.0
1979-07-25 00:24:43.340 ,0,1,0.,24.0,0.,24.0
1979-07-25 00:25:07.340 ,4,1,0.,24.0,0.,24.0
1979-07-25 00:25:31.340 ,7,1,0.,24.0,0.,24.0
1979-07-25 00:25:55.340 ,3,1,0.,24.0,0.,24.0
1979-07-25 00:26:19.340 ,0,1,0.,24.0,0.,24.0
1979-07-25 00:26:43.340 ,4,1,0.,24.0,0.,24.0
1979-07-25 00:27:07.340 ,7,1,0.,24.0,0.,24.0
1979-07-25 00:27:31.340 ,3,1,0.,24.0,0.,24.0
1979-07-25 00:27:55.340 ,0,1,0.,24.0,0.,24.0
1979-07-25 00:28:19.340 ,4,1,0.,24.0,0.,24.0
1979-07-25 00:28:43.340 ,7,1,0.,24.0,0.,24.0
1979-07-25 00:29:07.340 ,3,1,0.,24.0,0.,24.0